Location: Innsbruck
(47.2657°N, 11.3914°E)
Time: 01:39:09
(UTC+02:00)

Envisat - Pass Details

Date: 08 February 2023
Orbit: 763 x 765 km, 98.2° (Epoch: 28 March)

Event Time Altitude Azimuth Distance (km) Brightness Sun altitude
Rises 03:35:42 0° 22° (NNE) 3,244 6.8 -39.8°
Reaches altitude 10° 03:38:16 10° 33° (NNE) 2,312 6.0 -39.4°
Enters shadow 03:40:08 20° 48° (NE) 1,730 5.3 -39.1°
